FW0561 Weather Reports


Display with metric or nautical units.
time (UTC)temp
F
wind
direction
speed
MPH
gust
MPH
rain 1hr
in
rain 24hr
in
rain mn
in
humidity
%
barometer
mb
20260507140218 69 110 0.0 4.0 0.00 0.00 0.00 57 1022.3
20260507135618 67 118 0.0 5.0 0.00 0.00 0.00 60 1022.4
20260507135018 66 109 0.0 3.0 0.00 0.00 0.00 61 1022.4
20260507134418 66 101 2.0 3.0 0.00 0.00 0.00 62 1022.4
20260507133819 65 104 0.0 3.0 0.00 0.00 0.00 62 1022.2
20260507133219 65 96 0.0 3.0 0.00 0.00 0.00 62 1022.2
20260507132618 65 74 0.0 3.0 0.00 0.00 0.00 65 1022.2
20260507132019 63 294 0.0 5.0 0.00 0.00 0.00 66 1022.2
20260507131418 61 297 1.0 4.0 0.00 0.00 0.00 69 1022.3
20260507130818 60 308 0.0 5.0 0.00 0.00 0.00 72 1022.3
20260507130218 58 298 2.0 6.0 0.00 0.00 0.00 74 1022.3
20260507125630 57 313 2.0 6.0 0.00 0.00 0.00 77 1022.3
20260507125018 56 308 2.0 5.0 0.00 0.00 0.00 80 1022.3
20260507124418 55 295 0.0 4.0 0.00 0.00 0.00 82 1022.1
20260507123831 54 279 2.0 5.0 0.00 0.00 0.00 83 1022.1
20260507123218 53 297 2.0 6.0 0.00 0.00 0.00 85 1022.0
20260507122618 52 292 2.0 4.0 0.00 0.00 0.00 87 1022.0
20260507122018 52 308 2.0 7.0 0.00 0.00 0.00 86 1022.0
20260507121418 52 300 3.0 6.0 0.00 0.00 0.00 86 1022.0
20260507120818 52 296 2.0 4.0 0.00 0.00 0.00 86 1022.0
20260507120218 52 304 2.0 6.0 0.00 0.00 0.00 87 1022.0
20260507115618 52 292 2.0 6.0 0.00 0.00 0.00 86 1022.0
20260507115018 53 285 2.0 6.0 0.00 0.00 0.00 86 1021.9
20260507114418 52 312 2.0 6.0 0.00 0.00 0.00 85 1021.9
20260507113818 53 272 2.0 5.0 0.00 0.00 0.00 84 1021.9
20260507113218 54 299 2.0 6.0 0.00 0.00 0.00 84 1021.8
20260507112618 54 275 2.0 5.0 0.00 0.00 0.00 83 1021.8
20260507112018 54 274 2.0 8.0 0.00 0.00 0.00 82 1021.7
20260507111418 54 279 2.0 7.0 0.00 0.00 0.00 82 1021.7
20260507110818 53 271 2.0 8.0 0.00 0.00 0.00 85 1021.7
20260507110218 53 292 2.0 5.0 0.00 0.00 0.00 86 1021.7
20260507105618 55 305 1.0 5.0 0.00 0.00 0.00 85 1021.7
20260507105018 55 283 2.0 4.0 0.00 0.00 0.00 85 1021.7
20260507104418 55 296 2.0 5.0 0.00 0.00 0.00 84 1021.7
20260507103818 55 295 2.0 5.0 0.00 0.00 0.00 84 1021.7
20260507103218 54 320 2.0 7.0 0.00 0.00 0.00 86 1021.7
20260507102618 54 305 3.0 5.0 0.00 0.00 0.00 86 1021.7
20260507102018 53 300 2.0 4.0 0.00 0.00 0.00 88 1021.5
20260507101418 54 262 1.0 2.0 0.00 0.00 0.00 87 1021.5
20260507100819 55 275 1.0 3.0 0.00 0.00 0.00 85 1021.5
20260507100219 56 331 0.0 3.0 0.00 0.00 0.00 83 1021.5
20260507095618 56 310 0.0 3.0 0.00 0.00 0.00 84 1021.5
20260507095018 57 328 1.0 3.0 0.00 0.00 0.00 82 1021.4
20260507094418 57 325 1.0 3.0 0.00 0.00 0.00 81 1021.4
20260507093818 57 297 0.0 3.0 0.00 0.00 0.00 81 1021.4
20260507093218 58 313 1.0 3.0 0.00 0.00 0.00 77 1021.3
20260507092630 57 328 0.0 3.0 0.00 0.00 0.00 78 1021.4
20260507092018 57 329 0.0 4.0 0.00 0.00 0.00 79 1021.4
20260507091418 57 325 2.0 4.0 0.00 0.00 0.00 80 1021.4
20260507090819 57 291 2.0 4.0 0.00 0.00 0.00 81 1021.3
20260507090218 57 305 2.0 3.0 0.00 0.00 0.00 78 1021.4
20260507085643 57 306 0.0 3.0 0.00 0.00 0.00 78 1021.4
20260507085030 57 318 0.0 3.0 0.00 0.00 0.00 79 1021.4
20260507084443 56 284 0.0 4.0 0.00 0.00 0.00 81 1021.5
20260507083818 56 295 2.0 5.0 0.00 0.00 0.00 82 1021.6
20260507083231 57 298 2.0 3.0 0.00 0.00 0.00 79 1021.6
20260507082618 57 295 0.0 4.0 0.00 0.00 0.00 80 1021.6
20260507082018 57 270 2.0 4.0 0.00 0.00 0.00 78 1021.6
20260507081418 57 283 1.0 6.0 0.00 0.00 0.00 78 1021.7
20260507080819 57 321 3.0 5.0 0.00 0.00 0.00 77 1021.7
20260507080218 57 302 1.0 4.0 0.00 0.00 0.00 76 1021.7
20260507075618 56 292 2.0 6.0 0.00 0.00 0.00 76 1021.7
20260507075018 55 298 2.0 5.0 0.00 0.00 0.00 78 1021.8
20260507074418 55 309 2.0 6.0 0.00 0.00 0.00 79 1021.8
20260507073818 55 289 2.0 5.0 0.00 0.00 0.00 80 1021.8
20260507073218 54 295 2.0 5.0 0.00 0.00 0.00 79 1021.8
20260507072618 55 305 2.0 4.0 0.00 0.00 0.00 76 1021.8
20260507072018 55 297 2.0 4.0 0.00 0.00 0.00 73 1021.9
20260507071430 55 289 2.0 4.0 0.00 0.00 0.00 74 1021.8
20260507070818 55 286 0.0 4.0 0.00 0.00 0.00 73 1021.8
20260507070218 55 272 2.0 5.0 0.00 0.00 0.00 71 1021.8
20260507065618 55 284 2.0 5.0 0.00 0.00 0.00 70 1021.9
20260507065018 55 284 3.0 3.0 0.00 0.00 0.00 68 1021.8
20260507064430 56 316 0.0 4.0 0.00 0.00 0.00 66 1022.0
20260507063818 56 270 1.0 2.0 0.00 0.00 0.00 67 1022.0
20260507063218 56 274 2.0 4.0 0.00 0.00 0.00 70 1022.0
20260507062618 57 310 2.0 3.0 0.00 0.00 0.00 67 1022.0
20260507062018 57 296 0.0 3.0 0.00 0.00 0.00 65 1022.0
20260507061418 57 290 0.0 5.0 0.00 0.00 0.00 65 1022.0
20260507060830 56 251 3.0 7.0 0.00 0.00 0.00 66 1022.0
20260507060218 57 296 2.0 7.0 0.00 0.00 0.00 65 1022.0
20260507055618 56 281 2.0 6.0 0.00 0.00 0.00 68 1022.1
20260507055018 56 288 3.0 4.0 0.00 0.00 0.00 68 1022.0
20260507054418 56 289 2.0 4.0 0.00 0.00 0.00 67 1022.0
20260507053819 56 293 2.0 4.0 0.00 0.00 0.00 66 1022.0
20260507053218 56 299 2.0 4.0 0.00 0.00 0.00 66 1022.0
20260507052632 57 299 2.0 4.0 0.00 0.00 0.00 66 1021.9
20260507052018 57 299 2.0 3.0 0.00 0.00 0.00 62 1022.0
20260507051419 57 280 0.0 4.0 0.00 0.00 0.00 62 1022.0
20260507050818 57 279 2.0 4.0 0.00 0.00 0.00 64 1021.9
20260507050218 58 308 2.0 5.0 0.00 0.00 0.00 61 1021.8
20260507045631 58 276 2.0 4.0 0.00 0.00 0.00 63 1021.8
20260507045018 58 261 1.0 3.0 0.00 0.00 0.00 61 1021.7
20260507044418 58 285 1.0 4.0 0.00 0.00 0.00 60 1021.7
20260507043818 59 265 2.0 4.0 0.00 0.00 0.00 61 1021.5
20260507043218 59 308 2.0 6.0 0.00 0.00 0.00 61 1021.4
20260507042618 58 280 2.0 3.0 0.00 0.00 0.00 67 1021.4
20260507042018 58 316 1.0 4.0 0.00 0.00 0.00 66 1021.2
20260507041418 58 242 2.0 2.0 0.00 0.00 0.00 69 1021.3
20260507040830 60 256 0.0 3.0 0.00 0.00 0.00 63 1021.1
20260507040218 60 348 0.0 2.0 0.00 0.00 0.00 64 1021.2
20260507035618 61 338 0.0 3.0 0.00 0.00 0.00 64 1021.1
20260507035055 62 328 0.0 3.0 0.00 0.00 0.00 61 1021.1
20260507034418 62 276 1.0 4.0 0.00 0.00 0.00 63 1021.1
20260507033818 63 263 0.0 2.0 0.00 0.00 0.00 60 1020.9
20260507033218 66 107 0.0 3.0 0.00 0.00 0.00 54 1020.9
20260507032618 68 93 0.0 8.0 0.00 0.00 0.00 49 1020.8
20260507032018 69 95 2.0 8.0 0.00 0.00 0.00 48 1020.7
20260507031418 69 82 3.0 9.0 0.00 0.00 0.00 48 1020.5
20260507030818 69 69 2.0 9.0 0.00 0.00 0.00 47 1020.4
20260507030218 70 85 2.0 9.0 0.00 0.00 0.00 46 1020.4
20260507025618 70 75 3.0 12.0 0.00 0.00 0.00 45 1020.3
20260507025018 70 85 3.0 13.0 0.00 0.00 0.00 44 1020.2
20260507024418 71 83 4.0 12.0 0.00 0.00 0.00 43 1020.0
20260507023830 71 59 4.0 13.0 0.00 0.00 0.00 43 1020.0
20260507023218 72 60 5.0 14.0 0.00 0.00 0.00 42 1020.0
20260507022618 72 59 6.0 12.0 0.00 0.00 0.00 40 1019.7
20260507022018 73 51 6.0 13.0 0.00 0.00 0.00 38 1019.7
20260507021418 73 68 4.0 11.0 0.00 0.00 0.00 35 1019.7
20260507020818 74 43 3.0 12.0 0.00 0.00 0.00 35 1019.4
20260507020218 74 56 3.0 14.0 0.00 0.00 0.00 33 1019.4
20260507015618 76 253 3.0 8.0 0.00 0.00 0.00 31 1019.3
20260507015019 78 23 3.0 12.0 0.00 0.00 0.00 23 1019.1
20260507014431 78 350 3.0 14.0 0.00 0.00 0.00 16 1018.7
20260507013843 78 348 6.0 17.0 0.00 0.00 0.00 14 1018.5
20260507013243 78 339 3.0 14.0 0.00 0.00 0.00 14 1018.5
20260507012630 78 336 3.0 11.0 0.00 0.00 0.00 14 1018.3
20260507012018 78 315 2.0 11.0 0.00 0.00 0.00 13 1018.3
20260507011418 79 328 2.0 13.0 0.00 0.00 0.00 12 1018.2
20260507010818 79 19 3.0 11.0 0.00 0.00 0.00 12 1018.2
20260507010218 80 297 4.0 14.0 0.00 0.00 0.00 12 1018.0
20260507005630 80 329 3.0 13.0 0.00 0.00 0.00 12 1018.0
20260507005031 81 319 3.0 13.0 0.00 0.00 0.00 11 1018.0
20260507004430 81 346 6.0 16.0 0.00 0.00 0.00 10 1017.9
20260507003818 82 351 2.0 13.0 0.00 0.00 0.00 11 1017.9
20260507003218 82 0 5.0 12.0 0.00 0.00 0.00 9 1017.8
20260507002618 83 318 1.0 12.0 0.00 0.00 0.00 11 1017.9
20260507002018 84 287 2.0 8.0 0.00 0.00 0.00 10 1017.8
20260507001430 86 238 2.0 8.0 0.00 0.00 0.00 8 1018.0
20260507000818 86 195 0.0 8.0 0.00 0.00 0.00 8 1017.9
20260507000219 86 158 5.0 13.0 0.00 0.00 0.00 7 1017.9
20260506235618 88 258 2.0 17.0 0.00 0.00 0.00 9 1017.9
20260506235018 88 294 5.0 21.0 0.00 0.00 0.00 8 1017.9
20260506234418 88 263 3.0 11.0 0.00 0.00 0.00 8 1017.9
20260506233818 88 245 4.0 11.0 0.00 0.00 0.00 7 1017.7
20260506233218 88 248 3.0 11.0 0.00 0.00 0.00 8 1017.9
20260506232618 90 158 0.0 3.0 0.00 0.00 0.00 6 1017.7
20260506232019 89 177 0.0 7.0 0.00 0.00 0.00 7 1017.7
20260506231430 88 193 0.0 12.0 0.00 0.00 0.00 7 1017.7
20260506230818 88 133 1.0 14.0 0.00 0.00 0.00 7 1017.7
20260506230230 89 212 2.0 8.0 0.00 0.00 0.00 7 1017.9
20260506225618 86 173 0.0 7.0 0.00 0.00 0.00 9 1018.0
20260506225018 86 251 2.0 11.0 0.00 0.00 0.00 9 1018.0
20260506224418 89 267 2.0 12.0 0.00 0.00 0.00 7 1018.1
20260506223818 89 175 2.0 12.0 0.00 0.00 0.00 7 1018.1
20260506223218 89 239 0.0 11.0 0.00 0.00 0.00 7 1018.0
20260506222630 89 231 0.0 9.0 0.00 0.00 0.00 6 1018.0
20260506222018 89 272 1.0 17.0 0.00 0.00 0.00 7 1018.1
20260506221418 89 235 2.0 12.0 0.00 0.00 0.00 7 1018.1
20260506220830 87 99 0.0 10.0 0.00 0.00 0.00 6 1018.3
20260506220218 89 174 3.0 17.0 0.00 0.00 0.00 7 1018.4
20260506215643 90 236 4.0 17.0 0.00 0.00 0.00 7 1018.6
20260506215018 88 211 4.0 18.0 0.00 0.00 0.00 7 1018.3
20260506214418 89 175 1.0 9.0 0.00 0.00 0.00 7 1018.4
20260506213818 88 186 4.0 12.0 0.00 0.00 0.00 6 1018.5
20260506213219 88 288 2.0 14.0 0.00 0.00 0.00 8 1018.6
20260506212618 89 136 2.0 13.0 0.00 0.00 0.00 8 1018.7
20260506212018 89 306 3.0 11.0 0.00 0.00 0.00 7 1018.7
20260506211431 88 227 2.0 15.0 0.00 0.00 0.00 7 1018.8
20260506210818 88 256 0.0 11.0 0.00 0.00 0.00 7 1018.8
20260506210218 89 223 0.0 15.0 0.00 0.00 0.00 7 1019.0
20260506205618 88 210 1.0 24.0 0.00 0.00 0.00 7 1019.1
20260506205018 88 204 11.0 19.0 0.00 0.00 0.00 9 1019.1
20260506204418 88 194 3.0 20.0 0.00 0.00 0.00 8 1019.1
20260506203830 88 228 5.0 21.0 0.00 0.00 0.00 8 1019.2
20260506203218 88 174 4.0 19.0 0.00 0.00 0.00 8 1019.2
20260506202618 89 226 5.0 19.0 0.00 0.00 0.00 8 1019.2
20260506202018 89 250 3.0 18.0 0.00 0.00 0.00 7 1019.4
20260506201431 89 167 2.0 16.0 0.00 0.00 0.00 8 1019.4
20260506200818 88 194 3.0 14.0 0.00 0.00 0.00 7 1019.4
20260506200230 89 220 1.0 16.0 0.00 0.00 0.00 6 1019.4
20260506195618 89 169 1.0 14.0 0.00 0.00 0.00 7 1019.5
20260506195018 88 158 3.0 16.0 0.00 0.00 0.00 7 1019.6
20260506194418 87 231 2.0 18.0 0.00 0.00 0.00 7 1019.6
20260506193843 88 226 4.0 19.0 0.00 0.00 0.00 8 1019.9
20260506193218 88 245 2.0 17.0 0.00 0.00 0.00 7 1019.9
20260506192618 88 225 4.0 14.0 0.00 0.00 0.00 8 1019.9
20260506192019 87 166 0.0 14.0 0.00 0.00 0.00 6 1020.1
20260506191418 88 250 3.0 17.0 0.00 0.00 0.00 7 1020.2
20260506190818 87 222 0.0 10.0 0.00 0.00 0.00 8 1020.1
20260506190218 87 167 0.0 18.0 0.00 0.00 0.00 8 1020.2
20260506185618 88 250 2.0 14.0 0.00 0.00 0.00 8 1020.2
20260506185018 88 249 7.0 13.0 0.00 0.00 0.00 8 1020.2
20260506184418 88 161 1.0 13.0 0.00 0.00 0.00 10 1020.3
20260506183818 86 260 0.0 13.0 0.00 0.00 0.00 8 1020.3
20260506183218 87 254 6.0 14.0 0.00 0.00 0.00 9 1020.5
20260506182618 86 245 4.0 9.0 0.00 0.00 0.00 10 1020.6
20260506182018 86 333 1.0 9.0 0.00 0.00 0.00 8 1020.6
20260506181418 86 277 0.0 18.0 0.00 0.00 0.00 8 1020.7
20260506180818 86 179 2.0 10.0 0.00 0.00 0.00 8 1020.8
20260506180218 85 166 7.0 14.0 0.00 0.00 0.00 8 1020.8
20260506175618 86 252 1.0 15.0 0.00 0.00 0.00 8 1020.8
20260506175018 85 196 2.0 17.0 0.00 0.00 0.00 8 1020.8
20260506174418 85 235 4.0 16.0 0.00 0.00 0.00 7 1020.6
20260506173818 86 222 2.0 16.0 0.00 0.00 0.00 7 1020.8
20260506173218 85 216 0.0 12.0 0.00 0.00 0.00 7 1020.8
20260506172618 85 231 2.0 14.0 0.00 0.00 0.00 8 1020.9
20260506172018 85 248 0.0 14.0 0.00 0.00 0.00 9 1021.0
20260506171419 83 145 0.0 6.0 0.00 0.00 0.00 9 1021.0
20260506170818 83 233 2.0 5.0 0.00 0.00 0.00 9 1021.2
20260506170218 83 116 4.0 15.0 0.00 0.00 0.00 9 1021.2
20260506165618 81 73 3.0 13.0 0.00 0.00 0.00 10 1021.2
20260506165017 82 56 3.0 7.0 0.00 0.00 0.00 10 1021.0
20260506164418 82 86 2.0 7.0 0.00 0.00 0.00 9 1021.2
20260506163818 82 114 0.0 7.0 0.00 0.00 0.00 9 1021.2
20260506163218 81 180 0.0 13.0 0.00 0.00 0.00 9 1021.2
20260506162618 81 147 6.0 11.0 0.00 0.00 0.00 11 1021.0
20260506162018 82 132 3.0 9.0 0.00 0.00 0.00 10 1021.2
20260506161430 82 130 0.0 6.0 0.00 0.00 0.00 9 1021.2
20260506160830 82 119 0.0 5.0 0.00 0.00 0.00 9 1021.2
20260506160218 81 271 0.0 7.0 0.00 0.00 0.00 10 1021.2
20260506155618 80 284 2.0 4.0 0.00 0.00 0.00 11 1021.2
20260506155018 79 305 0.0 4.0 0.00 0.00 0.00 11 1021.2
20260506154418 79 99 0.0 5.0 0.00 0.00 0.00 11 1021.3
20260506153830 78 184 0.0 6.0 0.00 0.00 0.00 12 1021.3
20260506153218 78 78 3.0 6.0 0.00 0.00 0.00 12 1021.3
20260506152618 77 237 0.0 3.0 0.00 0.00 0.00 13 1021.5
20260506152018 76 151 1.0 5.0 0.00 0.00 0.00 13 1021.5
20260506151418 76 52 0.0 7.0 0.00 0.00 0.00 13 1021.3
20260506150818 75 117 0.0 6.0 0.00 0.00 0.00 15 1021.5
20260506150218 74 111 1.0 5.0 0.00 0.00 0.00 13 1021.5
20260506145618 73 129 2.0 4.0 0.00 0.00 0.00 17 1021.5
20260506145030 72 60 0.0 4.0 0.00 0.00 0.00 16 1021.6
20260506144418 71 91 2.0 5.0 0.00 0.00 0.00 21 1021.6
20260506143818 70 90 0.0 5.0 0.00 0.00 0.00 23 1021.6
20260506143218 69 118 0.0 5.0 0.00 0.00 0.00 27 1021.8
20260506142618 68 109 0.0 5.0 0.00 0.00 0.00 25 1021.8
20260506142043 68 135 1.0 4.0 0.00 0.00 0.00 26 1021.7
20260506141418 67 252 0.0 3.0 0.00 0.00 0.00 25 1021.7
20260506140818 66 265 0.0 2.0 0.00 0.00 0.00 25 1021.7